Retour au catalogue

DELTA 1 DEB *

ActifLEO
NORAD 10519·DEBRIS·🇺🇸 United States

Lancé Dec 15, 1977 depuis Cape Canaveral Space Force Station

Loading…

Prochains Passages (prochaines 24 heures)

TLE

FraisSource: Space-Track

Époque: Sep 14, 2026, 00:02 UTC

1 10519U 77118C   26257.00151994  .00000324  00000-0  67042-4 0  9993
2 10519  29.0565 244.0798 0811314 171.5633 189.9511 13.30756784348129

Suivez DELTA 1 DEB * en temps réel avec AllMySat

Download on the App Store